Weather History for Big Piney, WY

Change the Weather History Date:

Monday, December 24, 2012

  Actual Average Record
Temperature  
Mean Temperature 19 °F 11 °F  
Max Temperature 25 °F 26 °F 49 °F (1980)
Min Temperature 13 °F -3 °F -47 °F (1990)
Degree Days  
Heating Degree Days 46 54  
Month to date heating degree days 1136 1248  
Since 1 July heating degree days 3301 4063  
Cooling Degree Days 0 0  
Month to date cooling degree days 0 0  
Year to date cooling degree days 67 35  
Moisture  
Dew Point 16 °F    
Average Humidity 80    
Maximum Humidity 92    
Minimum Humidity 67    
Precipitation  
Precipitation T in 0.01 in 0.13 in (1997)
Month to date precipitation 0.04 0.22  
Year to date precipitation 2.69 6.40  
Sea Level Pressure  
Sea Level Pressure 29.80 in    
Wind  
Wind Speed 7 mph (North)    
Max Wind Speed 24 mph    
Max Gust Speed 32 mph    
Visibility 6 miles    
Events Snow    
T = Trace of Precipitation, MM = Missing Value Source: NWS Daily Summary

Daily Weather History Graph

Daily Weather History Graph

Search for Another Location

Airport:

Trip Planner

Search our weather history database for the weather conditions in past years. The results will help you decide how hot, cold, wet, or windy it might be!

Date:

Astronomy

Dec. 24, 2012 Rise Set
Actual Time 7:48 AM MST 4:52 PM MST
Civil Twilight 7:16 AM MST 5:24 PM MST
Nautical Twilight 6:40 AM MST 5:59 PM MST
Astronomical Twilight 6:06 AM MST 6:34 PM MST
Moon 2:23 PM MST (12/24) 4:28 AM MST (12/24)
Length of Visible Light 10h 07m
Length of Day
9h 03m
Waxing Gibbous, 89% of the Moon is Illuminated
Dec 24
Waxing Gibbous
Dec 28
Full
Jan 4
Last Quarter
Jan 11
New
Jan 18
First Quarter

Hourly Weather History & Observations

Time (MST) Temp. Windchill Dew Point Humidity Pressure Visibility Wind Dir Wind Speed Gust Speed Precip Events Conditions
12:22 AM 19.4 °F 14.3 °F 17.6 °F 93% 29.81 in 2.0 mi ESE 3.5 mph - 0.00 in Snow Light Snow
12:36 AM 19.4 °F - 17.6 °F 93% 29.81 in 3.0 mi Calm Calm - 0.00 in Snow Light Snow
12:53 AM 19.0 °F - 17.1 °F 92% 29.85 in 4.0 mi Calm Calm - 0.00 in Snow Light Snow
1:08 AM 19.4 °F - 15.8 °F 86% 29.79 in 2.5 mi Calm Calm - 0.00 in Snow Light Snow
1:19 AM 19.4 °F 14.3 °F 15.8 °F 86% 29.79 in 4.0 mi ESE 3.5 mph - 0.00 in Snow Light Snow
1:31 AM 19.4 °F - 15.8 °F 86% 29.78 in 5.0 mi Calm Calm - 0.00 in Snow Light Snow
1:40 AM 19.4 °F - 15.8 °F 86% 29.79 in 3.0 mi Calm Calm - 0.00 in Snow Light Snow
1:50 AM 17.6 °F - 15.8 °F 93% 29.78 in 6.0 mi Calm Calm - 0.00 in Snow Light Snow
1:53 AM 18.0 °F 12.7 °F 15.1 °F 88% 29.84 in 7.0 mi NE 3.5 mph - 0.00 in Snow Light Snow
2:53 AM 19.9 °F - 17.1 °F 89% 29.84 in 5.0 mi Calm Calm - 0.00 in Snow Light Snow
3:06 AM 19.4 °F 14.3 °F 15.8 °F 86% 29.78 in 2.0 mi North 3.5 mph - 0.00 in Snow Light Snow
3:25 AM 17.6 °F - 15.8 °F 93% 29.77 in 4.0 mi Calm Calm - 0.00 in Snow Light Snow
3:53 AM 14.0 °F 6.5 °F 12.0 °F 92% 29.86 in 9.0 mi NE 4.6 mph - 0.00 in   Overcast
4:32 AM 17.6 °F 12.3 °F 14.0 °F 86% 29.76 in 10.0 mi NNE 3.5 mph - N/A   Overcast
4:53 AM 17.1 °F 10.0 °F 14.0 °F 88% 29.86 in 10.0 mi NNE 4.6 mph - N/A   Overcast
5:53 AM 18.0 °F - 16.0 °F 92% 29.83 in 10.0 mi Calm Calm - N/A   Overcast
6:53 AM 19.0 °F - 16.0 °F 88% 29.86 in 10.0 mi Calm Calm - 0.00 in   Overcast
7:03 AM 19.4 °F - 15.8 °F 86% 29.75 in 10.0 mi Calm Calm - N/A   Overcast
7:53 AM 19.0 °F 12.3 °F 17.1 °F 92% 29.85 in 6.0 mi NW 4.6 mph - N/A   Overcast
8:35 AM 19.4 °F 12.8 °F 17.6 °F 93% 29.74 in 2.5 mi NNW 4.6 mph - N/A   Overcast
8:53 AM 19.0 °F 13.9 °F 17.1 °F 92% 29.84 in 2.5 mi East 3.5 mph - 0.00 in Snow Light Snow
9:01 AM 19.4 °F 12.8 °F 17.6 °F 93% 29.75 in 5.0 mi SE 4.6 mph - 0.00 in Snow Light Snow
9:36 AM 19.4 °F - 17.6 °F 93% 29.76 in 7.0 mi Calm Calm - 0.00 in   Overcast
9:53 AM 21.0 °F - 19.0 °F 92% 29.85 in 10.0 mi Calm Calm - 0.00 in   Overcast
10:53 AM 21.9 °F - 19.0 °F 89% 29.84 in 9.0 mi Calm Calm - 0.00 in   Overcast
11:53 AM 23.0 °F - 18.0 °F 81% 29.81 in 10.0 mi Calm Calm - N/A   Overcast
12:43 PM 24.8 °F - 19.4 °F 80% 29.71 in 2.5 mi Calm Calm - 0.00 in Snow Light Snow
12:51 PM 24.8 °F - 19.4 °F 80% 29.71 in 3.0 mi Calm Calm - 0.00 in Snow Light Snow
12:53 PM 24.1 °F - 19.9 °F 84% 29.78 in 3.0 mi Calm Calm - 0.00 in Snow Light Snow
1:53 PM 24.1 °F 19.7 °F 18.0 °F 77% 29.78 in 4.0 mi North 3.5 mph - 0.00 in Snow Light Snow
2:04 PM 24.8 °F 17.9 °F 19.4 °F 80% 29.70 in 3.0 mi North 5.8 mph - 0.00 in Snow Light Snow
2:11 PM 24.8 °F 16.1 °F 19.4 °F 80% 29.70 in 1.8 mi NW 8.1 mph - 0.00 in Snow Light Snow
2:15 PM 23.0 °F 15.8 °F 19.4 °F 86% 29.70 in 0.8 mi NNW 5.8 mph - 0.00 in Snow Light Snow
2:22 PM 24.8 °F 17.9 °F 19.4 °F 80% 29.70 in 1.0 mi North 5.8 mph - 0.00 in Snow Light Snow
2:31 PM 24.8 °F 19.1 °F 19.4 °F 80% 29.70 in 2.5 mi NNE 4.6 mph - 0.00 in Snow Light Snow
2:39 PM 24.8 °F 16.9 °F 19.4 °F 80% 29.70 in 3.0 mi North 6.9 mph - 0.00 in Snow Light Snow
2:42 PM 24.8 °F 16.9 °F 19.4 °F 80% 29.70 in 1.8 mi NNE 6.9 mph - 0.00 in Snow Light Snow
2:53 PM 24.1 °F 16.0 °F 19.0 °F 81% 29.78 in 1.0 mi North 6.9 mph - 0.00 in Snow Light Snow
3:22 PM 23.0 °F 13.9 °F 19.4 °F 86% 29.71 in 3.0 mi ENE 8.1 mph - 0.00 in Snow Light Snow
3:46 PM 24.8 °F 16.9 °F 19.4 °F 80% 29.71 in 10.0 mi NE 6.9 mph - 0.00 in   Overcast
3:53 PM 24.1 °F 14.4 °F 19.0 °F 81% 29.81 in 10.0 mi NNE 9.2 mph - 0.00 in   Overcast
4:53 PM 21.9 °F 8.7 °F 12.9 °F 68% 29.83 in 10.0 mi North 15.0 mph - N/A   Overcast
5:53 PM 19.9 °F 5.7 °F 10.9 °F 68% 29.86 in 10.0 mi NNW 16.1 mph - N/A   Overcast
6:53 PM 19.9 °F 5.2 °F 10.9 °F 68% 29.88 in 10.0 mi NNW 17.3 mph 24.2 mph N/A   Overcast
7:53 PM 19.9 °F 5.2 °F 10.9 °F 68% 29.90 in 10.0 mi North 17.3 mph - N/A   Overcast
8:53 PM 19.9 °F 5.2 °F 10.9 °F 68% 29.92 in 10.0 mi North 17.3 mph - N/A   Overcast
9:53 PM 19.0 °F 3.6 °F 12.0 °F 74% 29.95 in 5.0 mi NNW 18.4 mph - 0.00 in Snow Light Snow
10:53 PM 19.0 °F 4.5 °F 10.0 °F 68% 29.96 in 10.0 mi NNW 16.1 mph - 0.00 in   Overcast
11:53 PM 18.0 °F 3.6 °F 9.0 °F 68% 29.98 in 10.0 mi NNW 15.0 mph - N/A   Overcast